{"data":{"norad_id":59337,"intl_designator":"2024-057T","name":"STARLINK-31612","alt_names":[],"object_type":"PAYLOAD","status":"ACTIVE","operator":null,"country":"US","launch_date":"2024-03-25","launch_site_code":"AFETR","launch_vehicle":null,"mission":null,"orbit_class":"UNKNOWN","rcs_meters":null,"size_class":null,"mass_kg":null,"dimensions":null,"purposes":["comms"],"wikipedia_slug":null,"has_3d_model":false,"image_url":null,"decayed_at":null,"tle_current":{"epoch":"2026-05-25T05:21:09.715968Z","epoch_age_seconds":52255,"freshness":"FRESH","line1":"1 59337U 24057T   26145.22302912  .00000162  00000+0  15423-4 0  9991","line2":"2 59337  43.0060 114.8752 0000946 276.3322  83.7422 15.27575410121540","mean_motion":15.2757541,"eccentricity":9.46e-5,"inclination_deg":43.006,"raan_deg":114.8752,"arg_perigee_deg":276.3322,"mean_anomaly_deg":83.7422,"bstar":1.5423e-5,"rev_number":12154,"period_min":94.267031962762,"perigee_km":482.41377068043,"apogee_km":483.71190969019,"semimajor_km":6861.1998401853,"source":"CELESTRAK","updated_at":"2026-05-25T13:38:18.906331Z"}}}